Location: Amsterdam
(30.7274°N, 84.4357°W)
Time: 19:31:37
(UTC+00:00)

Tiros 1 - Pass Details

Date: 23 February 2026
Orbit: 618 x 649 km, 48.4° (Epoch: 10 March)

Event Time Altitude Azimuth Distance (km) Brightness Sun altitude
Rises 20:06:51 0° 291° (WNW) 2,882 10.7 38.2°
Reaches altitude 10° 20:09:53 10° 271° (W) 1,972 10.3 37.7°
Maximum altitude 20:12:43 16° 232° (SW) 1,587 10.8 37.3°
Drops below altitude 10° 20:15:33 10° 192° (SSW) 1,968 10.5 36.8°
Sets 20:18:35 0° 172° (S) 2,872 10.9 36.4°
